User: anonymous   Login
Location: Cluny
(50.9333°N, 112.8167°W)
Time: 04:28:29
(UTC-06:00)
Language:

Cosmos 1743 Rocket - Orbit

View from above orbital plane
View from above orbital plane
View from above satellite
View from above satellite

Ground track
Ground track

The orbit data is extracted from the following two-line orbital elements,

1 16720U 86034B   16240.86082674  .00000084  00000-0  73180-5 0  9997
2 16720  82.5565 154.9677 0020080 353.8394  48.2338 14.83243523635785
Epoch (UTC): 27 August 2016 20:39:35
Eccentricity: 0.0020080
inclination: 82.5565°
perigee height: 605 km
apogee height: 633 km
right ascension of ascending node: 154.9677°
argument of perigee: 353.8394°
revolutions per day: 14.83243523
mean anomaly at epoch: 48.2338°
orbit number at epoch: 63578

The dashed part of the orbit path shows where the satellite is in the earth's shadow,  

DLR